Weather History for Liverpool, United Kingdom

Change the Weather History Date:

Sunday, January 20, 2013

  Actual Average Record
Temperature  
Mean Temperature 34 °F -  
Max Temperature 35 °F 45 °F 57 °F (2002)
Min Temperature 33 °F 36 °F 28 °F (2011)
Degree Days  
Heating Degree Days 31    
Moisture  
Dew Point 31 °F    
Average Humidity 87    
Maximum Humidity 93    
Minimum Humidity 81    
Precipitation  
Precipitation 0.00 in - - ()
Sea Level Pressure  
Sea Level Pressure 29.47 in    
Wind  
Wind Speed 9 mph ()    
Max Wind Speed 16 mph    
Max Gust Speed -    
Visibility 4.9 miles    
Events Rain , Snow    
Averages and records for this station are not official NWS values.
T = Trace of Precipitation, MM = Missing Value Source: Averaged Metar Reports

Daily Weather History Graph

Daily Weather History Graph

Search for Another Location

Airport:

Trip Planner

Search our weather history database for the weather conditions in past years. The results will help you decide how hot, cold, wet, or windy it might be!

Date:

Astronomy

Jan. 20, 2013 Rise Set
Actual Time 8:13 AM GMT 4:32 PM GMT
Civil Twilight 7:33 AM GMT 5:12 PM GMT
Nautical Twilight 6:49 AM GMT 5:55 PM GMT
Astronomical Twilight 6:08 AM GMT 6:36 PM GMT
Moon 11:29 AM GMT (1/20) 2:25 AM GMT (1/20)
Length of Visible Light 9h 39m
Length of Day
8h 19m
Waxing Gibbous, 64% of the Moon is Illuminated
Jan 20
Waxing Gibbous
Jan 27
Full
Feb 3
Last Quarter
Feb 10
New
Feb 17
First Quarter

Hourly Weather History & Observations

Time (GMT) Temp. Windchill Dew Point Humidity Pressure Visibility Wind Dir Wind Speed Gust Speed Precip Events Conditions
12:20 AM 33.8 °F 26.4 °F 28.4 °F 81% 29.59 in 6.2 mi NE 9.2 mph - N/A   Mostly Cloudy
12:50 AM 33.8 °F 26.4 °F 28.4 °F 81% 29.56 in 6.2 mi NE 9.2 mph - N/A   Mostly Cloudy
1:20 AM 33.8 °F 26.4 °F 28.4 °F 81% 29.56 in 6.2 mi NE 9.2 mph - N/A   Mostly Cloudy
1:50 AM 33.8 °F 25.8 °F 28.4 °F 81% 29.56 in 6.2 mi NE 10.4 mph - N/A   Mostly Cloudy
2:20 AM 33.8 °F 25.8 °F 28.4 °F 81% 29.56 in 6.2 mi NE 10.4 mph - N/A   Mostly Cloudy
2:50 AM 33.8 °F 27.0 °F 30.2 °F 87% 29.56 in 6.2 mi NNE 8.1 mph - N/A   Mostly Cloudy
3:20 AM 33.8 °F 26.4 °F 28.4 °F 81% 29.56 in 6.2 mi NE 9.2 mph - N/A   Mostly Cloudy
3:50 AM 33.8 °F 26.4 °F 30.2 °F 87% 29.56 in 6.2 mi NE 9.2 mph - N/A   Mostly Cloudy
4:20 AM 33.8 °F 26.4 °F 30.2 °F 87% 29.53 in 5.6 mi NE 9.2 mph - N/A Rain , Snow Light Rain
4:50 AM 33.8 °F 26.4 °F 30.2 °F 87% 29.53 in 5.6 mi NNE 9.2 mph - N/A   Mostly Cloudy
5:20 AM 33.8 °F 26.4 °F 30.2 °F 87% 29.53 in 6.2 mi NE 9.2 mph - N/A   Mostly Cloudy
5:50 AM 33.8 °F 26.4 °F 30.2 °F 87% 29.53 in 6.2 mi NE 9.2 mph - N/A   Mostly Cloudy
6:20 AM 33.8 °F 27.0 °F 30.2 °F 87% 29.53 in 5.6 mi NE 8.1 mph - N/A Rain , Snow Light Rain Showers
6:50 AM 33.8 °F 26.4 °F 30.2 °F 87% 29.53 in 6.2 mi NE 9.2 mph - N/A   Mostly Cloudy
7:20 AM 33.8 °F 27.0 °F 30.2 °F 87% 29.53 in 6.2 mi NE 8.1 mph - N/A   Mostly Cloudy
8:20 AM 33.8 °F 27.0 °F 30.2 °F 87% 29.53 in 6.2 mi NE 8.1 mph - N/A   Mostly Cloudy
8:50 AM 33.8 °F 26.4 °F 30.2 °F 87% 29.53 in 6.2 mi NE 9.2 mph - N/A   Mostly Cloudy
9:20 AM 33.8 °F 26.4 °F 30.2 °F 87% 29.50 in 6.2 mi NE 9.2 mph - N/A   Mostly Cloudy
9:50 AM 33.8 °F 26.4 °F 30.2 °F 87% 29.50 in 3.7 mi ENE 9.2 mph - N/A   Overcast
10:20 AM 33.8 °F 27.0 °F 30.2 °F 87% 29.50 in 1.9 mi NE 8.1 mph - N/A Snow Light Snow
10:50 AM 33.8 °F 25.8 °F 32.0 °F 93% 29.50 in 1.2 mi NE 10.4 mph - N/A Snow Light Snow
11:50 AM 33.8 °F 27.7 °F 32.0 °F 93% 29.47 in 1.2 mi NE 6.9 mph - N/A Snow Light Snow
12:20 PM 33.8 °F 27.7 °F 32.0 °F 93% 29.47 in 1.2 mi ENE 6.9 mph - N/A Snow Light Snow
12:50 PM 33.8 °F 25.8 °F 32.0 °F 93% 29.47 in 3.7 mi East 10.4 mph - N/A Snow Light Snow
1:20 PM 33.8 °F 25.3 °F 32.0 °F 93% 29.44 in 2.5 mi East 11.5 mph - N/A Snow Light Snow
1:50 PM 33.8 °F 25.8 °F 32.0 °F 93% 29.44 in 2.5 mi ENE 10.4 mph - N/A Snow Light Snow
2:20 PM 35.6 °F 27.1 °F 32.0 °F 87% 29.44 in 5.0 mi ENE 12.7 mph - N/A Snow Light Snow
2:50 PM 35.6 °F 26.6 °F 32.0 °F 87% 29.44 in 3.7 mi ENE 13.8 mph - N/A Snow Light Snow
3:20 PM 35.6 °F 26.6 °F 32.0 °F 87% 29.44 in 5.0 mi ENE 13.8 mph - N/A   Mostly Cloudy
3:50 PM 35.6 °F 28.0 °F 30.2 °F 81% 29.44 in 5.0 mi East 10.4 mph - N/A   Mostly Cloudy
4:20 PM 35.6 °F 27.5 °F 30.2 °F 81% 29.44 in 6.2 mi East 11.5 mph - N/A   Scattered Clouds
4:50 PM 35.6 °F 25.9 °F 30.2 °F 81% 29.44 in 6.2 mi East 16.1 mph - N/A   Scattered Clouds
5:20 PM 35.6 °F 26.6 °F 30.2 °F 81% 29.42 in 6.2 mi East 13.8 mph - N/A   Scattered Clouds
5:50 PM 35.6 °F 28.0 °F 30.2 °F 81% 29.42 in 6.2 mi ENE 10.4 mph - N/A   Scattered Clouds
6:20 PM 35.6 °F 28.0 °F 30.2 °F 81% 29.42 in 6.2 mi ENE 10.4 mph - N/A   Mostly Cloudy
6:50 PM 35.6 °F 28.0 °F 30.2 °F 81% 29.42 in 6.2 mi NE 10.4 mph - N/A   Mostly Cloudy
7:20 PM 35.6 °F 28.0 °F 32.0 °F 87% 29.42 in 6.2 mi NE 10.4 mph - N/A   Mostly Cloudy
7:50 PM 35.6 °F 28.0 °F 32.0 °F 87% 29.42 in 6.2 mi NE 10.4 mph - N/A   Mostly Cloudy
8:20 PM 35.6 °F 28.0 °F 32.0 °F 87% 29.42 in 6.2 mi NE 10.4 mph - N/A   Mostly Cloudy
8:50 PM 35.6 °F 28.0 °F 32.0 °F 87% 29.39 in 6.2 mi NE 10.4 mph - N/A   Mostly Cloudy
9:20 PM 33.8 °F 25.3 °F 32.0 °F 93% 29.39 in 5.6 mi NE 11.5 mph - N/A Snow Light Snow
9:50 PM 33.8 °F 24.3 °F 32.0 °F 93% 29.39 in 2.5 mi NE 13.8 mph - N/A Snow Light Snow
10:20 PM 33.8 °F 25.8 °F 32.0 °F 93% 29.39 in 1.2 mi NE 10.4 mph - N/A Snow Snow
10:50 PM 33.8 °F 25.8 °F 32.0 °F 93% 29.39 in 1.2 mi NNE 10.4 mph - N/A Snow Light Snow
11:20 PM 33.8 °F 27.0 °F 32.0 °F 93% 29.36 in 4.3 mi NNE 8.1 mph - N/A Snow Light Snow
11:50 PM 33.8 °F 27.7 °F 32.0 °F 93% 29.36 in 3.1 mi North 6.9 mph - N/A Snow Light Snow